Station PILL1 - 8760721 - Pilottown, LA Image indicating link to RSS feed of recent meteorological observations for station PILL1


Conditions at PILL1 as of
(2:54 am CDT)
0754 GMT on 07/23/2024:
     

Click on the graph icon in the table below to see a time series plot of the last five days of that observation.

5-day plot - Wind Direction Wind Direction (WDIR): S ( 190 deg true )
5-day plot - Wind Speed Wind Speed (WSPD): 1.9 kts
5-day plot - Wind Gust Wind Gust (GST): 2.9 kts
5-day plot - Atmospheric Pressure Atmospheric Pressure (PRES):30.03 in
5-day plot - Air Temperature Air Temperature (ATMP): 80.8 °F
5-day plot - Water Temperature Water Temperature (WTMP): 84.4 °F
5-day plot - Wind Speed at 10 Meters Wind Speed at 10 meters (WSPD10M): 1.9 kts
5-day plot - Wind Speed at 20 Meters Wind Speed at 20 meters (WSPD20M): 1.9 kts
5-day plot -  Wind Speed, Wind Gust and Atmospheric Pressure Combined plot of Wind Speed, Gust, and Air Pressure
NOS Water Level Observation Network Water Level
Previous observations
TIME
(CDT)
5-day plot - Wind Direction
WDIR
 
5-day plot - Wind Speed
WSPD
kts
5-day plot - Wind Gust
GST
kts
5-day plot - Wave Height
WVHT
ft
5-day plot - Dominant Wave Period
DPD
sec
5-day plot - Average Wave Period
APD
sec
5-day plot - Mean Wave Direction
MWD
 
5-day plot - Atmospheric Pressure
PRES
in
5-day plot - Pressure Tendency
PTDY
in
5-day plot - Air Temperature
ATMP
°F
5-day plot - Water Temperature
WTMP
°F
5-day plot - Dew Point
DEWP
°F
5-day plot - Salinity
SAL
psu
5-day plot - Visibility
VIS
nmi
5-day plot - Tide (above MLLW)
TIDE
ft
2024-07-23 02:48 am S 1.9 4.1----30.03- 80.8 84.4----
2024-07-23 02:42 am S 2.9 4.1----30.03- 81.0 84.4----
2024-07-23 02:36 am S 2.9 4.1----30.03- 81.1 84.4----
2024-07-23 02:30 amSSW 2.9 4.1----30.04- 81.5 84.4----
2024-07-23 02:24 amSSW 4.1 6.0----30.04- 81.9 84.4----
2024-07-23 02:18 am S 5.1 6.0----30.04- 81.7 84.4----
2024-07-23 02:12 am S 4.1 5.1----30.04- 81.5 84.4----
2024-07-23 02:06 am S 4.1 5.1----30.04- 81.5 84.4----
2024-07-23 02:00 am S 4.1 5.1----30.04-0.01 81.5 84.4----
2024-07-23 01:54 am S 5.1 6.0----30.05- 81.7 84.4----
2024-07-23 01:48 amSSE 2.9 4.1----30.05- 81.5 84.4----
2024-07-23 01:42 amSSE 2.9 4.1----30.05- 81.7 84.4----
2024-07-23 01:36 amSSE 2.9 4.1----30.05- 81.7 84.4----
2024-07-23 01:30 amSSE 2.9 2.9----30.05- 81.9 84.4----
2024-07-23 01:24 am S 2.9 2.9----30.05- 81.7 84.4----
2024-07-23 01:18 amSSE 1.9 2.9----30.05- 81.7 84.4----
2024-07-23 01:12 am SE 1.9 2.9----30.05- 81.7 84.4----
2024-07-23 01:06 am SE 1.9 2.9----30.05- 81.9 84.4----
2024-07-23 01:00 amSSE 2.9 2.9----30.05+0.00 81.9 84.4----
2024-07-23 12:54 amSSE 2.9 2.9----30.05- 81.9 84.4----
2024-07-23 12:48 amSSE 2.9 2.9----30.05- 81.9 84.4----
2024-07-23 12:42 amSSE 1.9 2.9----30.05- 81.7 84.4----
2024-07-23 12:36 amSSE 1.9 2.9----30.05- 81.7 84.4----
2024-07-23 12:30 amSSE 2.9 4.1----30.05- 81.9 84.4----
2024-07-23 12:24 am SE 1.9 2.9----30.05- 81.7 84.4----
2024-07-23 12:18 amSSE 2.9 4.1----30.05- 81.7 84.4----
2024-07-23 12:12 amSSE 2.9 4.1----30.05- 81.7 84.4----
2024-07-23 12:06 amSSE 2.9 2.9----30.05- 81.7 84.4----
2024-07-23 12:00 am S 2.9 4.1----30.05+0.02 81.7 84.4----
2024-07-22 11:54 pm S 2.9 4.1----30.05- 81.7 84.4----
2024-07-22 11:48 pm S 2.9 5.1----30.05- 81.7 84.4----
2024-07-22 11:42 pm S 4.1 5.1----30.05- 81.7 84.4----
2024-07-22 11:36 pm S 4.1 5.1----30.05- 82.0 84.4----
2024-07-22 11:30 pm S 5.1 5.1----30.05- 81.7 84.4----
2024-07-22 11:24 pm S 5.1 5.1----30.05- 81.7 84.4----
2024-07-22 11:18 pm S 5.1 5.1----30.05- 81.5 84.4----
2024-07-22 11:12 pm S 4.1 5.1----30.05- 81.3 84.4----
2024-07-22 11:06 pm S 5.1 5.1----30.05- 81.3 84.4----
2024-07-22 11:00 pm S 4.1 5.1----30.05+0.04 81.5 84.4----
2024-07-22 10:54 pm S 4.1 5.1----30.06- 81.7 84.4----
2024-07-22 10:48 pm S 4.1 5.1----30.06- 81.9 84.4----
2024-07-22 10:42 pm S 4.1 4.1----30.06- 81.7 84.6----
2024-07-22 10:36 pm S 2.9 4.1----30.05- 81.7 84.6----
2024-07-22 10:30 pm S 4.1 4.1----30.05- 82.0 84.6----
2024-07-22 10:24 pm S 2.9 4.1----30.05- 82.2 84.6----
2024-07-22 10:18 pm S 2.9 4.1----30.05- 82.4 84.6----
2024-07-22 10:12 pm S 2.9 4.1----30.05- 82.4 84.6----
2024-07-22 10:06 pm S 4.1 4.1----30.05- 82.4 84.6----
2024-07-22 10:00 pm S 2.9 2.9----30.05+0.05 82.4 84.6----
2024-07-22 09:54 pm S 2.9 2.9----30.04- 82.4 84.6----
2024-07-22 09:48 pm S 2.9 4.1----30.04- 82.2 84.6----
2024-07-22 09:42 pm S 4.1 4.1----30.05- 82.4 84.6----
2024-07-22 09:36 pm S 4.1 5.1----30.04- 82.2 84.7----
2024-07-22 09:30 pm S 2.9 4.1----30.04- 82.2 84.6----
2024-07-22 09:24 pm S 4.1 4.1----30.04- 82.0 84.6----
2024-07-22 09:18 pm S 4.1 5.1----30.04- 82.2 84.6----
2024-07-22 09:12 pm S 4.1 4.1----30.03- 82.2 84.7----
2024-07-22 09:06 pm S 4.1 5.1----30.03- 82.2 84.7----
2024-07-22 09:00 pm S 4.1 5.1----30.03+0.04 82.0 84.7----
2024-07-22 08:54 pm S 4.1 4.1----30.03- 82.2 84.7----
2024-07-22 08:48 pm S 2.9 4.1----30.03- 82.6 84.7----
2024-07-22 08:42 pm S 2.9 4.1----30.02- 82.6 84.7----
2024-07-22 08:36 pm S 2.9 4.1----30.03- 82.6 84.7----
2024-07-22 08:30 pm S 2.9 4.1----30.03- 82.6 84.7----
2024-07-22 08:24 pm S 4.1 5.1----30.02- 82.8 84.7----
2024-07-22 08:18 pm S 5.1 5.1----30.02- 82.8 84.7----
2024-07-22 08:12 pm S 4.1 5.1----30.01- 82.8 84.7----
2024-07-22 08:06 pm S 4.1 5.1----30.01- 82.9 84.7----
2024-07-22 08:00 pm S 4.1 5.1----30.01+0.03 82.9 84.9----
2024-07-22 07:54 pm S 2.9 6.0----30.01- 83.1 84.9----
2024-07-22 07:48 pm S 5.1 6.0----30.01- 83.5 84.9----
2024-07-22 07:42 pm S 4.1 5.1----30.01- 84.0 84.9----
2024-07-22 07:36 pm S 1.9 4.1----30.01- 84.2 84.9----
2024-07-22 07:30 pm S 4.1 5.1----30.01- 84.6 85.1----
2024-07-22 07:24 pmSSW 5.1 6.0----30.01- 86.2 85.1----
2024-07-22 07:18 pmSSW 5.1 6.0----30.00- 86.7 85.1----
2024-07-22 07:12 pmSSW 5.1 6.0----30.00- 86.9 85.1----
2024-07-22 07:06 pmSSW 6.0 7.0----30.00- 86.7 85.1----
2024-07-22 07:00 pmSSW 6.0 7.0----30.00+0.00 86.9 85.1----
2024-07-22 06:54 pm SW 6.0 7.0----30.00- 86.5 85.3----
2024-07-22 06:48 pmSSW 6.0 7.0----30.00-- 85.3----
2024-07-22 06:42 pmSSW 6.0 7.0----30.00-- 85.3----
2024-07-22 06:36 pm S 6.0 7.0----29.99-- 85.5----
2024-07-22 06:30 pmSSW 6.0 7.0----29.99-- 85.5----
2024-07-22 06:24 pmSSW 7.0 7.0----29.99-- 85.5----
2024-07-22 06:18 pmSSW 5.1 7.0----29.98- 85.8 85.5----
2024-07-22 06:12 pmSSW 6.0 7.0----29.98- 86.2 85.5----
2024-07-22 06:06 pmSSW 6.0 8.0----29.98- 85.6 85.5----
2024-07-22 06:00 pmSSW 7.0 8.0----29.98-0.03 86.2 85.5----
2024-07-22 05:54 pmSSW 5.1 6.0----29.98- 86.7 85.5----
2024-07-22 05:48 pmSSW 5.1 5.1----29.98- 88.0 85.6----
2024-07-22 05:42 pm SW 2.9 5.1----29.98- 89.1 85.6----
2024-07-22 05:36 pm SW 4.1 5.1----29.98- 88.0 85.6----
2024-07-22 05:30 pmSSW 4.1 6.0----29.99- 87.4 85.6----
2024-07-22 05:24 pmSSW 5.1 8.0----29.98- 87.1 85.8----
2024-07-22 05:18 pm SW 8.0 9.9----29.99- 86.5 85.6----
2024-07-22 05:12 pmSSW 8.0 9.9----29.98- 85.6 85.6----
2024-07-22 05:06 pmSSW 8.9 9.9----29.99- 86.2 85.6----
2024-07-22 05:00 pmSSW 5.1 7.0----29.98-0.05 86.9 85.6----
2024-07-22 04:54 pmSSW 5.1 7.0----29.98- 87.1 85.6----
2024-07-22 04:48 pm S 6.0 7.0----29.98- 86.0 85.8----
2024-07-22 04:42 pmSSW 7.0 8.0----29.99- 86.2 85.6----
2024-07-22 04:36 pm S 6.0 7.0----29.99- 86.4 85.8----
2024-07-22 04:30 pm-------29.99-- 85.8----
2024-07-22 04:24 pm-------30.00-- 85.8----
2024-07-22 04:18 pmSSW 7.0 9.9----30.00- 86.4 85.6----
2024-07-22 04:12 pmSSW 8.0 8.9----30.00- 86.5 85.6----
2024-07-22 04:06 pm SW 8.0 9.9----30.00- 87.1 85.6----
2024-07-22 04:00 pmSSW 7.0 8.9----30.00-0.05- 85.6----
2024-07-22 03:54 pmSSW 7.0 8.9----30.01-- 85.8----
2024-07-22 03:48 pmSSW 8.9 9.9----30.01- 85.8 85.8----
2024-07-22 03:42 pmSSW 7.0 8.9----30.01- 85.8 85.8----
2024-07-22 03:36 pmSSW 7.0 8.9----30.01- 85.6 85.8----
2024-07-22 03:30 pmSSW 8.0 9.9----30.01- 85.5 85.8----
2024-07-22 03:24 pmSSW 8.0 9.9----30.01- 86.4 85.8----
2024-07-22 03:18 pmSSW 8.0 9.9----30.02- 86.9 85.8----
2024-07-22 03:12 pm SW 6.0 8.9----30.02- 87.4 85.5----
2024-07-22 03:06 pm SW 5.1 8.0----30.02- 87.3 85.5----
2024-07-22 03:00 pmWSW 5.1 8.9----30.02-0.04 86.9 85.6----
2024-07-22 02:54 pmWSW 6.0 8.0----30.02- 87.4 85.5----
2024-07-22 02:48 pmWSW 1.0 1.9----30.02-- 85.5----
2024-07-22 02:42 pm- 0.0 1.9----30.02-- 85.5----
2024-07-22 02:36 pm SW 1.9 1.9----30.02-- 85.5----
2024-07-22 02:30 pm SW 1.9 1.9----30.02- 87.6 85.5----
2024-07-22 02:24 pmSSW 1.9 2.9----30.02- 87.6 85.5----
2024-07-22 02:18 pm- 0.0 2.9----30.03- 87.1 85.5----
2024-07-22 02:12 pm S 1.9 2.9----30.03- 86.4 85.6----
2024-07-22 02:06 pm S 1.9 5.1----30.03- 86.4 85.5----
2024-07-22 02:00 pmSSW 5.1 6.0----30.03-0.03 86.0 85.6----
2024-07-22 01:54 pmSSW 4.1 5.1----30.03- 86.2 85.5----
2024-07-22 01:48 pmSSW 5.1 6.0----30.04- 85.8 85.5----
2024-07-22 01:42 pmWSW 2.9 4.1----30.04- 87.3 85.5----
2024-07-22 01:36 pm SW 2.9 5.1----30.04- 87.1 85.5----
2024-07-22 01:30 pmSSW 4.1 5.1----30.04- 86.7 85.6----
2024-07-22 01:24 pmSSW 1.9 4.1----30.04- 85.8 85.5----
2024-07-22 01:18 pmSSW 5.1 6.0----30.05- 85.5 85.5----
2024-07-22 01:12 pm W 1.9 4.1----30.05- 86.0 85.5----
2024-07-22 01:06 pm W 2.9 6.0----30.05- 86.2 85.5----
2024-07-22 01:00 pm W 5.1 5.1----30.05-0.02 86.0 85.5----
2024-07-22 12:54 pm W 2.9 5.1----30.05- 86.0 85.3----
2024-07-22 12:48 pm W 4.1 5.1----30.06- 86.4 85.3----
2024-07-22 12:42 pm S 1.0 2.9----30.06- 86.5 85.3----
2024-07-22 12:36 pm- 0.0 2.9----30.06- 86.2 85.5----
2024-07-22 12:30 pm W 1.9 5.1----30.06- 87.3 85.5----
2024-07-22 12:24 pm W 5.1 6.0----30.06- 86.9 85.3----
2024-07-22 12:18 pm- 0.0 2.9----30.06- 85.8 85.3----
2024-07-22 12:12 pmWNW 1.9 4.1----30.06- 85.1 85.1----
2024-07-22 12:06 pm NW 2.9 4.1----30.06- 85.3 85.1----
2024-07-22 12:00 pm W 2.9 4.1----30.06+0.00 89.6 85.1----
2024-07-22 11:54 am W 1.9 1.9----30.06- 89.8 85.3----
2024-07-22 11:48 amWSW 1.9 4.1----30.06- 89.1 85.1----
2024-07-22 11:42 am W 2.9 4.1----30.06- 88.7 85.1----
2024-07-22 11:36 am W 1.9 4.1----30.06- 88.2 85.1----
2024-07-22 11:30 am W 1.0 2.9----30.06- 88.3 85.1----
2024-07-22 11:24 am SW 1.9 4.1----30.06- 88.0 84.9----
2024-07-22 11:18 amSSW 1.9 2.9----30.06- 89.8 84.9----
2024-07-22 11:12 amWSW 1.0 2.9----30.06- 90.1 84.9----
2024-07-22 11:06 amWSW 1.0 1.0----30.06- 89.6 85.1----
2024-07-22 11:00 am- 0.0 1.9----30.06+0.02 88.2 85.1----
2024-07-22 10:54 amSSW 1.9 1.9----30.06- 87.3 84.7----
2024-07-22 10:48 amSSW 1.0 2.9----30.06- 87.6 84.7----
2024-07-22 10:42 am SW 1.0 2.9----30.06- 87.8 84.7----
2024-07-22 10:36 am SW 2.9 5.1----30.06- 88.0 84.7----
2024-07-22 10:30 am SW 2.9 4.1----30.06- 87.6 84.7----
2024-07-22 10:24 am W 1.9 5.1----30.06- 86.2 84.7----
2024-07-22 10:18 amSSW 2.9 4.1----30.06- 85.1 84.7----
2024-07-22 10:12 amSSW 2.9 4.1----30.07- 85.5 84.6----
2024-07-22 10:06 amSSW 2.9 5.1----30.07- 84.9 84.7----
2024-07-22 10:00 amSSW 2.9 4.1----30.07+0.05 85.6 84.6----
2024-07-22 09:54 amSSW 2.9 5.1----30.06- 86.2 84.6----
2024-07-22 09:48 amSSW 2.9 6.0----30.06- 87.6 84.6----
2024-07-22 09:42 am SW 2.9 4.1----30.06- 87.1 84.6----
2024-07-22 09:36 amSSW 1.9 2.9----30.06- 86.0 84.6----
2024-07-22 09:30 am S 2.9 5.1----30.06- 84.7 84.6----
2024-07-22 09:24 amSSW 1.9 2.9----30.06- 85.5 84.6----
2024-07-22 09:18 am S 2.9 2.9----30.06- 85.8 84.4----
2024-07-22 09:12 am- 0.0 1.0----30.06- 88.2 84.4----
2024-07-22 09:06 am- 0.0 1.9----30.06- 87.8 84.4----
2024-07-22 09:00 am SW 1.0 4.1----30.06+0.04 85.8 84.4----
2024-07-22 08:54 am SW 4.1 4.1----30.06- 85.8 84.4----
2024-07-22 08:48 amSSW 2.9 5.1----30.05- 85.5 84.4----
2024-07-22 08:42 amSSW 4.1 5.1----30.05- 84.6 84.4----
2024-07-22 08:36 amSSW 4.1 5.1----30.05- 84.4 84.4----
2024-07-22 08:30 amSSW 2.9 4.1----30.05- 85.8 84.4----
2024-07-22 08:24 am SW 2.9 2.9----30.05- 86.4 84.4----
2024-07-22 08:18 am SW 2.9 4.1----30.05- 86.0 84.4----
2024-07-22 08:12 am SW 2.9 2.9----30.05- 85.6 84.4----
2024-07-22 08:06 amWSW 1.9 2.9----30.05- 85.5 84.4----
2024-07-22 08:00 am W 1.9 2.9----30.04+0.04 84.6 84.4----
2024-07-22 07:54 amWSW 1.9 2.9----30.04- 82.9 84.4----
2024-07-22 07:48 amWSW 1.9 1.9----30.04- 82.8 84.4----
2024-07-22 07:42 am W 1.9 4.1----30.04- 82.2 84.4----
2024-07-22 07:36 am W 1.9 2.9----30.03- 81.7 84.4----
2024-07-22 07:30 am W 2.9 4.1----30.03- 81.5 84.4----
2024-07-22 07:24 am W 4.1 4.1----30.03- 81.3 84.4----
2024-07-22 07:18 amWSW 2.9 4.1----30.03- 81.3 84.4----
2024-07-22 07:12 amWSW 4.1 4.1----30.02- 81.1 84.4----
2024-07-22 07:06 amWSW 4.1 4.1----30.02- 81.1 84.4----
2024-07-22 07:00 amWSW 2.9 4.1----30.02+0.02 80.8 84.4----
2024-07-22 06:54 am SW 2.9 4.1----30.02- 80.8 84.4----
2024-07-22 06:48 amWSW 2.9 4.1----30.02- 80.6 84.4----
2024-07-22 06:42 amWSW 2.9 4.1----30.02- 80.4 84.4----
2024-07-22 06:36 amWSW 2.9 4.1----30.02- 80.6 84.4----
2024-07-22 06:30 amWSW 2.9 4.1----30.02- 80.4 84.4----
2024-07-22 06:24 amWSW 2.9 4.1----30.02- 80.4 84.4----
2024-07-22 06:18 amWSW 2.9 4.1----30.02- 80.4 84.4----
2024-07-22 06:12 amWSW 4.1 4.1----30.01- 80.4 84.4----
2024-07-22 06:06 amWSW 4.1 5.1----30.01- 80.2 84.4----
2024-07-22 06:00 amWSW 4.1 5.1----30.01+0.01 80.2 84.4----
2024-07-22 05:54 amWSW 4.1 5.1----30.01- 80.2 84.4----
2024-07-22 05:48 amWSW 4.1 6.0----30.01- 80.1 84.4----
2024-07-22 05:42 am SW 5.1 6.0----30.01- 80.1 84.4----
2024-07-22 05:36 amWSW 6.0 6.0----30.01- 80.2 84.4----
2024-07-22 05:30 am SW 6.0 7.0----30.01- 80.1 84.4----
2024-07-22 05:24 amWSW 5.1 6.0----30.01- 80.1 84.4----
2024-07-22 05:18 amWSW 6.0 6.0----30.01- 80.1 84.4----
2024-07-22 05:12 amWSW 5.1 6.0----30.01- 80.1 84.4----
2024-07-22 05:06 amWSW 6.0 6.0----30.01- 80.1 84.4----
2024-07-22 05:00 amWSW 5.1 6.0----30.01-0.01 80.1 84.4----
2024-07-22 04:54 am SW 4.1 5.1----30.01- 80.1 84.4----
2024-07-22 04:48 amWSW 4.1 5.1----30.01- 80.1 84.4----
2024-07-22 04:42 amWSW 5.1 6.0----30.01- 80.1 84.4----
2024-07-22 04:36 am SW 4.1 5.1----30.00- 80.1 84.4----
2024-07-22 04:30 am SW 4.1 5.1----30.00- 80.1 84.4----
2024-07-22 04:24 am SW 5.1 5.1----30.00- 80.2 84.4----
2024-07-22 04:18 am SW 5.1 6.0----30.00- 80.2 84.4----
2024-07-22 04:12 amSSW 5.1 5.1----30.00- 80.4 84.4----
2024-07-22 04:06 amSSW 5.1 6.0----30.00- 80.2 84.4----
2024-07-22 04:00 amSSW 5.1 6.0----30.00-0.04 80.2 84.4----
2024-07-22 03:54 am SW 5.1 5.1----30.00- 80.1 84.4----
2024-07-22 03:48 amSSW 5.1 5.1----30.00- 80.1 84.4----
2024-07-22 03:42 am SW 5.1 5.1----30.00- 80.1 84.4----
2024-07-22 03:36 am SW 5.1 5.1----30.00- 79.9 84.4----
2024-07-22 03:30 am SW 5.1 5.1----30.01- 79.9 84.4----
2024-07-22 03:24 am SW 5.1 7.0----30.00- 80.1 84.4----
2024-07-22 03:18 am SW 6.0 7.0----30.01- 79.9 84.4----
2024-07-22 03:12 amSSW 6.0 7.0----30.01- 79.9 84.4----
2024-07-22 03:06 am S 4.1 5.1----30.00- 79.2 84.4----
2024-07-22 03:00 am S 2.9 5.1----30.00-0.04 79.0 84.4----
2024-07-22 02:54 am S 2.9 4.1----30.00- 78.8 84.4----